FW4343 Weather Reports


time (UTC)temp
F
wind
direction
speed
knots
gust
knots
rain 1hr
in
rain 24hr
in
rain mn
in
humidity
%
barometer
mb
20260508021342 48 162 0.0 0.0 0.00 0.00 0.00 85 1013.4
20260508020846 48 162 0.0 0.0 0.00 0.00 0.00 85 1013.4
20260508020347 48 162 0.0 0.0 0.00 0.00 0.00 85 1013.3
20260508015846 48 162 0.0 0.0 0.00 0.00 0.00 85 1013.3
20260508015401 48 162 0.0 0.9 0.00 0.00 0.00 85 1013.3
20260508014904 48 162 0.0 1.7 0.00 0.00 0.00 85 1013.3
20260508014342 48 162 0.9 1.7 0.00 0.00 0.00 84 1013.2
20260508013846 48 162 0.9 2.6 0.00 0.00 0.00 85 1013.2
20260508013340 48 162 0.9 2.6 0.00 0.00 0.00 84 1013.2
20260508012845 48 162 0.9 1.7 0.00 0.00 0.00 84 1013.2
20260508012349 49 162 0.0 2.6 0.00 0.00 0.00 84 1013.3
20260508011906 49 162 1.7 2.6 0.00 0.00 0.00 84 1013.2
20260508011400 49 162 1.7 3.5 0.00 0.00 0.00 84 1013.3
20260508010906 49 190 0.9 2.6 0.00 0.00 0.00 84 1013.3
20260508010346 49 190 1.7 2.6 0.00 0.00 0.00 84 1013.4
20260508005854 49 190 1.7 2.6 0.00 0.00 0.00 84 1013.4
20260508005413 49 190 2.6 2.6 0.00 0.00 0.00 84 1013.4
20260508004910 49 146 0.9 1.7 0.00 0.00 0.00 83 1013.4
20260508004348 49 146 0.0 1.7 0.00 0.00 0.00 83 1013.3
20260508003842 49 146 0.9 1.7 0.00 0.00 0.00 83 1013.3
20260508003344 49 146 0.9 1.7 0.00 0.00 0.00 83 1013.3
20260508002844 49 158 0.9 2.6 0.00 0.00 0.00 83 1013.3
20260508002407 49 159 0.9 2.6 0.00 0.00 0.00 83 1013.3
20260508001901 50 159 0.9 2.6 0.00 0.00 0.00 83 1013.4
20260508001402 50 162 1.7 2.6 0.00 0.00 0.00 83 1013.4
20260508000843 50 169 1.7 3.5 0.00 0.00 0.00 83 1013.4
20260508000358 50 182 2.6 3.5 0.00 0.00 0.00 83 1013.5
20260507235916 50 182 1.7 2.6 0.00 0.00 0.00 83 1013.5
20260507235415 50 180 1.7 2.6 0.00 0.00 0.00 83 1013.5
20260507234843 50 180 1.7 2.6 0.00 0.00 0.00 84 1013.5
20260507234427 50 180 0.9 2.6 0.00 0.00 0.00 84 1013.5
20260507233846 50 163 1.7 2.6 0.00 0.00 0.00 83 1013.5
20260507233402 50 60 0.9 2.6 0.00 0.00 0.00 83 1013.4
20260507232858 50 60 0.9 2.6 0.00 0.00 0.00 83 1013.5
20260507232354 50 24 0.9 2.6 0.00 0.00 0.00 82 1013.4
20260507231852 50 24 0.0 2.6 0.00 0.00 0.00 82 1013.5
20260507231347 50 24 0.9 1.7 0.00 0.00 0.00 82 1013.5
20260507230905 50 338 0.9 1.7 0.00 0.00 0.00 82 1013.5
20260507230343 50 338 0.0 0.0 0.00 0.00 0.00 81 1013.5
20260507225857 50 338 0.0 0.0 0.00 0.00 0.00 81 1013.5
20260507225340 50 338 0.0 0.0 0.00 0.00 0.00 81 1013.4
20260507224903 50 338 0.0 0.0 0.00 0.00 0.00 81 1013.4
20260507224401 50 338 0.0 0.9 0.00 0.00 0.00 81 1013.3
20260507223852 50 338 0.0 0.9 0.00 0.00 0.00 81 1013.3
20260507223353 50 338 0.0 0.0 0.00 0.00 0.00 81 1013.3
20260507222848 50 338 0.0 0.0 0.00 0.00 0.00 81 1013.3
20260507222344 50 338 0.0 0.0 0.00 0.00 0.00 81 1013.3
20260507221844 51 338 0.0 2.6 0.00 0.00 0.00 81 1013.3
20260507221342 51 338 0.0 2.6 0.00 0.00 0.00 80 1013.4
20260507220856 51 338 0.0 2.6 0.00 0.00 0.00 81 1013.3
20260507220355 51 338 0.0 3.5 0.00 0.00 0.00 80 1013.3
20260507215857 51 337 0.9 3.5 0.00 0.00 0.00 80 1013.3
20260507215412 51 281 1.7 5.2 0.00 0.00 0.00 80 1013.3
20260507214849 51 244 1.7 6.1 0.00 0.00 0.00 79 1013.3
20260507214341 51 210 4.3 7.0 0.00 0.00 0.00 79 1013.3
20260507213848 51 229 5.2 7.8 0.00 0.00 0.00 79 1013.2
20260507213405 51 204 6.1 7.8 0.00 0.00 0.00 79 1013.1
20260507212840 51 207 6.1 9.6 0.00 0.00 0.00 78 1013.1
20260507212358 51 215 6.1 9.6 0.00 0.00 0.00 78 1013.0
20260507211851 51 192 5.2 7.8 0.00 0.00 0.00 78 1012.9
20260507211409 51 205 5.2 7.8 0.00 0.00 0.00 78 1012.9
20260507210900 51 201 5.2 8.7 0.00 0.00 0.00 77 1012.9
20260507210421 51 197 5.2 8.7 0.00 0.00 0.00 77 1012.8
20260507205900 51 212 5.2 7.0 0.00 0.00 0.00 77 1012.7
20260507205359 52 207 4.3 7.0 0.00 0.00 0.00 76 1012.7
20260507204859 52 197 4.3 6.1 0.00 0.00 0.00 76 1012.7
20260507204353 52 190 3.5 4.3 0.00 0.00 0.00 76 1012.7
20260507203849 52 196 1.7 6.1 0.00 0.00 0.00 75 1012.6
20260507203349 52 198 4.3 6.1 0.00 0.00 0.00 75 1012.5
20260507202850 52 199 4.3 7.8 0.00 0.00 0.00 75 1012.5
20260507202350 52 211 6.1 8.7 0.00 0.00 0.00 75 1012.4
20260507201854 52 210 7.0 9.6 0.00 0.00 0.00 75 1012.3
20260507201349 52 219 7.0 9.6 0.00 0.00 0.00 74 1012.2
20260507200846 53 213 7.0 9.6 0.00 0.00 0.00 74 1012.2
20260507200343 53 217 7.0 8.7 0.00 0.00 0.00 74 1012.1
20260507195841 53 215 6.1 9.6 0.00 0.00 0.00 74 1012.0
20260507195400 53 209 5.2 8.7 0.00 0.00 0.00 74 1011.9
20260507194902 53 223 7.0 9.6 0.00 0.00 0.00 74 1011.9
20260507194402 53 214 7.0 10.4 0.00 0.00 0.00 74 1011.9
20260507193904 53 216 7.0 10.4 0.00 0.00 0.00 73 1011.8
20260507193341 53 204 7.8 9.6 0.00 0.00 0.00 73 1011.8
20260507192858 53 204 7.0 9.6 0.00 0.00 0.00 73 1011.8
20260507192357 54 207 7.8 9.6 0.00 0.00 0.00 73 1011.8
20260507191916 54 234 7.8 9.6 0.00 0.00 0.00 73 1011.7
20260507191350 54 222 8.7 10.4 0.00 0.00 0.00 72 1011.7
20260507190843 54 217 8.7 10.4 0.00 0.00 0.00 72 1011.7
20260507190401 54 211 7.0 10.4 0.00 0.00 0.00 72 1011.6
20260507185900 54 232 7.0 13.0 0.00 0.00 0.00 72 1011.6
20260507185353 54 206 9.6 13.9 0.00 0.00 0.00 71 1011.6
20260507184851 55 219 9.6 13.9 0.00 0.00 0.00 70 1011.6
20260507184348 55 209 11.3 13.9 0.00 0.00 0.00 70 1011.5
20260507183902 55 225 7.8 12.2 0.00 0.00 0.00 70 1011.5
20260507183410 55 219 8.7 12.2 0.00 0.00 0.00 69 1011.4
20260507182840 55 217 7.0 8.7 0.00 0.00 0.00 67 1011.3
20260507182343 55 223 5.2 7.8 0.00 0.00 0.00 66 1011.2
20260507181903 55 219 6.1 7.8 0.00 0.00 0.00 66 1011.2
20260507181353 56 232 6.1 7.8 0.00 0.00 0.00 65 1011.1
20260507180855 56 208 6.1 8.7 0.00 0.00 0.00 65 1011.1
20260507180356 56 207 7.0 8.7 0.00 0.00 0.00 64 1011.1
20260507175850 56 237 6.1 8.7 0.00 0.00 0.00 64 1011.1
20260507175348 56 217 7.0 8.7 0.00 0.00 0.00 64 1011.1
20260507174844 56 224 6.1 7.8 0.00 0.00 0.00 65 1011.1
20260507174347 56 251 6.1 7.8 0.00 0.00 0.00 64 1011.1
20260507173843 56 205 5.2 7.8 0.00 0.00 0.00 65 1011.1
20260507173342 56 221 6.1 9.6 0.00 0.00 0.00 65 1011.1
20260507172903 56 213 6.1 9.6 0.00 0.00 0.00 64 1011.1
20260507172353 56 211 7.8 8.7 0.00 0.00 0.00 65 1011.0
20260507171912 56 259 7.8 11.3 0.00 0.00 0.00 63 1011.0
20260507171343 56 264 7.8 11.3 0.00 0.00 0.00 64 1011.0
20260507170841 56 220 8.7 13.9 0.00 0.00 0.00 61 1011.0
20260507170343 57 224 10.4 13.9 0.00 0.00 0.00 63 1011.0
20260507165903 57 230 9.6 13.9 0.00 0.00 0.00 63 1011.0
20260507165401 58 238 9.6 13.9 0.00 0.00 0.00 62 1010.9
20260507164840 58 218 8.7 13.0 0.00 0.00 0.00 61 1010.9
20260507164357 58 226 7.0 13.0 0.00 0.00 0.00 63 1010.9
20260507163857 57 238 8.7 12.2 0.00 0.00 0.00 60 1010.9
20260507163353 57 207 7.0 9.6 0.00 0.00 0.00 61 1010.8
20260507162851 57 208 7.0 9.6 0.00 0.00 0.00 60 1010.9
20260507162349 57 213 7.0 8.7 0.00 0.00 0.00 62 1010.9
20260507161847 58 224 7.8 12.2 0.00 0.00 0.00 60 1010.8
20260507161344 59 227 7.8 15.6 0.00 0.00 0.00 57 1010.8
20260507160900 60 240 10.4 14.8 0.00 0.00 0.00 56 1010.8
20260507160358 60 204 10.4 16.5 0.00 0.00 0.00 56 1010.8
20260507155855 60 225 12.2 16.5 0.00 0.00 0.00 56 1010.7
20260507155357 61 236 12.2 16.5 0.00 0.00 0.00 56 1010.6
20260507154859 60 209 11.3 18.2 0.00 0.00 0.00 54 1010.8
20260507154349 59 245 11.3 13.9 0.00 0.00 0.00 55 1010.8
20260507153845 60 242 7.8 19.1 0.00 0.00 0.00 53 1010.7
20260507153348 61 233 13.0 19.1 0.00 0.00 0.00 53 1010.8
20260507152844 60 220 9.6 13.9 0.00 0.00 0.00 54 1010.6
20260507152347 60 206 8.7 14.8 0.00 0.00 0.00 52 1010.7
20260507151840 61 237 10.4 16.5 0.00 0.00 0.00 52 1010.7
20260507151359 61 196 9.6 15.6 0.00 0.00 0.00 55 1010.8
20260507150849 61 259 10.4 17.4 0.00 0.00 0.00 56 1010.8
20260507150350 61 217 11.3 17.4 0.00 0.00 0.00 55 1010.8
20260507145851 61 211 10.4 13.0 0.00 0.00 0.00 57 1010.8
20260507145344 60 204 9.6 15.6 0.00 0.00 0.00 61 1010.9
20260507144841 58 232 10.4 15.6 0.00 0.00 0.00 64 1010.9
20260507144401 58 214 6.1 9.6 0.00 0.00 0.00 63 1010.9
20260507143855 58 223 7.8 10.4 0.00 0.00 0.00 62 1011.0
20260507143355 58 193 7.0 13.0 0.00 0.00 0.00 64 1011.0
20260507142853 59 247 7.8 13.0 0.00 0.00 0.00 65 1011.0
20260507142406 59 216 8.7 16.5 0.00 0.00 0.00 61 1011.1
20260507141841 60 239 12.2 16.5 0.00 0.00 0.00 65 1011.2
20260507141341 57 246 9.6 13.9 0.00 0.00 0.00 68 1011.2
20260507140918 57 211 8.7 11.3 0.00 0.00 0.00 66 1011.1
20260507140352 57 216 5.2 9.6 0.00 0.00 0.00 67 1011.1
20260507135848 57 211 7.8 11.3 0.00 0.00 0.00 66 1011.2
20260507135345 58 217 7.8 11.3 0.00 0.00 0.00 65 1011.2
20260507134842 59 211 8.7 10.4 0.00 0.00 0.00 65 1011.2
20260507134420 58 196 5.2 8.7 0.00 0.00 0.00 68 1011.2
20260507133850 57 190 4.3 10.4 0.00 0.00 0.00 68 1011.3
20260507133348 57 191 6.1 10.4 0.00 0.00 0.00 69 1011.3
20260507132910 56 160 6.1 10.4 0.00 0.00 0.00 70 1011.4
20260507132346 56 214 7.0 9.6 0.00 0.00 0.00 69 1011.4
20260507131841 56 235 6.1 13.0 0.00 0.00 0.00 69 1011.3
20260507131358 57 229 8.7 13.0 0.00 0.00 0.00 67 1011.3
20260507130849 57 235 8.7 11.3 0.00 0.00 0.00 67 1011.3
20260507130353 57 171 7.0 12.2 0.00 0.00 0.00 66 1011.3
20260507125857 58 184 8.7 13.0 0.00 0.00 0.00 64 1011.4
20260507125357 57 223 11.3 13.9 0.00 0.00 0.00 67 1011.4
20260507124857 57 175 7.0 18.2 0.00 0.00 0.00 66 1011.5
20260507124352 57 188 11.3 18.2 0.00 0.00 0.00 67 1011.6
20260507123904 58 192 12.2 16.5 0.00 0.00 0.00 65 1011.5
20260507123357 58 207 9.6 14.8 0.00 0.00 0.00 66 1011.6
20260507122859 57 161 8.7 13.0 0.00 0.00 0.00 64 1011.5
20260507122355 58 184 7.8 14.8 0.00 0.00 0.00 64 1011.7
20260507121858 59 198 11.3 15.6 0.00 0.00 0.00 62 1011.6
20260507121353 59 188 10.4 15.6 0.00 0.00 0.00 62 1011.7
20260507120844 57 184 7.0 14.8 0.00 0.00 0.00 66 1011.7
20260507120346 57 154 8.7 13.9 0.00 0.00 0.00 64 1011.9
20260507115844 58 206 8.7 15.6 0.00 0.00 0.00 64 1011.9
20260507115424 58 190 7.8 13.9 0.00 0.00 0.00 67 1011.9
20260507114920 57 206 9.6 13.0 0.00 0.00 0.00 66 1012.0
20260507114400 57 126 7.0 13.9 0.00 0.00 0.00 66 1012.1
20260507113851 58 182 8.7 12.2 0.00 0.00 0.00 64 1012.2
20260507113353 57 193 7.8 12.2 0.00 0.00 0.00 67 1012.2
20260507112916 56 173 7.0 11.3 0.00 0.00 0.00 72 1012.2
20260507112350 55 179 4.3 7.8 0.00 0.00 0.00 71 1012.2
20260507111849 55 209 6.1 8.7 0.00 0.00 0.00 72 1012.3
20260507111348 54 175 7.0 11.3 0.00 0.00 0.00 71 1012.3
20260507110841 54 165 7.8 11.3 0.00 0.00 0.00 70 1012.3
20260507110357 54 190 7.8 10.4 0.00 0.00 0.00 70 1012.3
20260507105919 54 211 5.2 10.4 0.00 0.00 0.00 71 1012.3
20260507105344 54 216 7.8 10.4 0.00 0.00 0.00 70 1012.3
20260507104840 54 207 8.7 13.9 0.00 0.00 0.00 69 1012.4
20260507104357 54 144 6.1 13.9 0.00 0.00 0.00 68 1012.4
20260507103855 55 203 8.7 12.2 0.00 0.00 0.00 67 1012.5
20260507103345 55 217 9.6 13.9 0.00 0.00 0.00 67 1012.5
20260507102841 54 202 9.6 13.9 0.00 0.00 0.00 68 1012.5
20260507102356 54 186 7.8 15.6 0.00 0.00 0.00 68 1012.5
20260507101859 54 194 11.3 15.6 0.00 0.00 0.00 67 1012.5
20260507101359 54 163 10.4 13.9 0.00 0.00 0.00 63 1012.4
20260507100853 54 217 8.7 15.6 0.00 0.00 0.00 65 1012.5
20260507100350 55 199 10.4 15.6 0.00 0.00 0.00 66 1012.5
20260507095843 56 132 8.7 12.2 0.00 0.00 0.00 66 1012.5
20260507095401 55 206 7.0 13.9 0.00 0.00 0.00 70 1012.4
20260507094855 54 197 9.6 13.9 0.00 0.00 0.00 72 1012.4
20260507094355 53 211 11.3 14.8 0.00 0.00 0.00 71 1012.5
20260507093852 53 204 7.8 13.0 0.00 0.00 0.00 74 1012.5
20260507093352 53 201 8.7 13.0 0.00 0.00 0.00 74 1012.5
20260507092844 53 209 7.8 10.4 0.00 0.00 0.00 73 1012.4
20260507092345 53 194 7.0 11.3 0.00 0.00 0.00 74 1012.4
20260507091856 53 196 8.7 13.9 0.00 0.00 0.00 72 1012.4
20260507091355 53 195 10.4 13.9 0.00 0.00 0.00 72 1012.4
20260507090855 53 198 9.6 15.6 0.00 0.00 0.00 71 1012.4
20260507090417 53 198 10.4 14.8 0.00 0.00 0.00 71 1012.4
20260507085855 53 200 10.4 14.8 0.00 0.00 0.00 71 1012.4
20260507085349 53 217 8.7 9.6 0.00 0.00 0.00 75 1012.4
20260507084842 53 186 7.0 8.7 0.00 0.00 0.00 78 1012.4
20260507084404 52 165 5.2 9.6 0.00 0.00 0.00 78 1012.4
20260507083859 52 164 6.1 9.6 0.00 0.00 0.00 78 1012.4
20260507083353 52 157 7.0 9.6 0.00 0.00 0.00 79 1012.4
20260507082921 52 159 4.3 9.6 0.00 0.00 0.00 80 1012.4
20260507082407 52 105 5.2 8.7 0.00 0.00 0.00 80 1012.4
20260507081847 52 118 6.1 9.6 0.00 0.00 0.00 80 1012.4
20260507081347 51 118 5.2 9.6 0.00 0.00 0.00 80 1012.5
20260507080846 51 157 5.2 8.7 0.00 0.00 0.00 82 1012.5
20260507080341 51 179 4.3 9.6 0.00 0.00 0.00 82 1012.6
20260507075845 50 141 4.3 7.8 0.00 0.00 0.00 82 1012.6
20260507075340 50 148 4.3 9.6 0.00 0.00 0.00 83 1012.6
20260507074918 50 152 6.1 9.6 0.00 0.00 0.00 83 1012.6
20260507074352 49 177 3.5 7.0 0.00 0.00 0.00 84 1012.5
20260507073847 49 165 2.6 7.8 0.00 0.00 0.00 84 1012.5
20260507073348 49 148 4.3 8.7 0.00 0.00 0.00 83 1012.5
20260507072907 49 125 3.5 8.7 0.00 0.00 0.00 84 1012.5
20260507072357 49 135 3.5 7.8 0.00 0.00 0.00 84 1012.4
20260507071910 49 137 4.3 7.8 0.00 0.00 0.00 84 1012.4
20260507071345 49 190 5.2 7.8 0.00 0.00 0.00 84 1012.4
20260507070903 49 180 3.5 6.1 0.00 0.00 0.00 84 1012.4
20260507070347 49 157 3.5 7.0 0.00 0.00 0.00 85 1012.4
20260507065840 49 161 4.3 6.1 0.00 0.00 0.00 85 1012.4
20260507065342 49 173 4.3 7.0 0.00 0.00 0.00 85 1012.4
20260507064900 49 148 3.5 7.0 0.00 0.00 0.00 85 1012.4
20260507064349 48 169 3.5 4.3 0.00 0.00 0.00 85 1012.3
20260507063846 48 180 2.6 4.3 0.00 0.00 0.00 86 1012.3
20260507063351 48 172 3.5 4.3 0.00 0.00 0.00 86 1012.3
20260507062846 48 183 2.6 5.2 0.00 0.00 0.00 87 1012.3
20260507062344 48 170 2.6 5.2 0.00 0.00 0.00 87 1012.3
20260507061844 47 196 2.6 4.3 0.00 0.00 0.00 87 1012.3
20260507061350 47 190 3.5 5.2 0.00 0.00 0.00 87 1012.3
20260507060851 47 191 3.5 5.2 0.00 0.00 0.00 87 1012.4
20260507060345 47 189 3.5 4.3 0.00 0.00 0.00 87 1012.5
20260507055849 47 197 3.5 4.3 0.00 0.00 0.00 86 1012.4
20260507055406 47 196 2.6 4.3 0.00 0.00 0.00 86 1012.4
20260507054907 47 190 2.6 4.3 0.00 0.00 0.00 86 1012.4
20260507054342 47 184 1.7 3.5 0.00 0.00 0.00 86 1012.4
20260507053843 47 186 1.7 3.5 0.00 0.00 0.00 86 1012.4
20260507053353 47 186 1.7 3.5 0.00 0.00 0.00 86 1012.4
20260507052911 47 194 1.7 2.6 0.00 0.00 0.00 86 1012.4
20260507052346 47 163 0.9 2.6 0.00 0.00 0.00 85 1012.3
20260507051843 47 169 0.9 2.6 0.00 0.00 0.00 85 1012.3
20260507051354 47 169 0.9 2.6 0.00 0.00 0.00 85 1012.3
20260507050854 47 182 0.0 2.6 0.00 0.00 0.00 85 1012.2
20260507050347 47 182 1.7 4.3 0.00 0.00 0.00 85 1012.2
20260507045906 47 188 1.7 4.3 0.00 0.00 0.00 85 1012.1
20260507045419 47 190 1.7 3.5 0.00 0.00 0.00 85 1012.2
20260507044840 47 186 1.7 3.5 0.00 0.00 0.00 85 1012.1
20260507044356 47 185 2.6 4.3 0.00 0.00 0.00 85 1012.2
20260507043851 47 191 2.6 4.3 0.00 0.00 0.00 85 1012.2
20260507043407 47 166 2.6 4.3 0.00 0.00 0.00 85 1012.2
20260507042845 47 167 2.6 5.2 0.00 0.00 0.00 84 1012.2
20260507042407 47 163 2.6 4.3 0.00 0.00 0.00 84 1012.1
20260507041923 47 163 2.6 5.2 0.00 0.00 0.00 85 1012.1
20260507041354 47 186 1.7 3.5 0.00 0.00 0.00 85 1012.1
20260507040855 47 175 1.7 5.2 0.00 0.00 0.00 84 1012.2
20260507040349 47 161 2.6 5.2 0.00 0.00 0.00 84 1012.1
20260507035847 47 150 2.6 4.3 0.00 0.00 0.00 84 1012.1
20260507035409 47 183 3.5 7.0 0.00 0.00 0.00 84 1012.1
20260507034925 47 180 4.3 7.0 0.00 0.00 0.00 85 1012.1
20260507034342 47 177 2.6 5.2 0.00 0.00 0.00 84 1012.1
20260507033839 47 158 2.6 5.2 0.00 0.00 0.00 85 1012.2
20260507033353 47 193 3.5 5.2 0.00 0.00 0.00 85 1012.2
20260507032846 47 186 2.6 5.2 0.00 0.00 0.00 85 1012.2
20260507032345 47 195 2.6 4.3 0.00 0.00 0.00 85 1012.2
20260507031840 47 165 1.7 4.3 0.00 0.00 0.00 85 1012.2
20260507031418 47 192 2.6 4.3 0.00 0.00 0.00 85 1012.2
20260507030850 47 198 3.5 4.3 0.00 0.00 0.00 85 1012.2
20260507030353 47 191 2.6 4.3 0.00 0.00 0.00 85 1012.2
20260507025850 47 201 2.6 5.2 0.00 0.00 0.00 84 1012.2
20260507025349 47 186 2.6 3.5 0.00 0.00 0.00 84 1012.2
20260507024910 47 150 2.6 4.3 0.00 0.00 0.00 84 1012.3
20260507024340 47 160 0.9 2.6 0.00 0.00 0.00 84 1012.3
20260507023859 48 160 0.9 4.3 0.00 0.00 0.00 84 1012.3
20260507023350 48 164 2.6 4.3 0.00 0.00 0.00 84 1012.3
20260507022850 48 155 2.6 5.2 0.00 0.00 0.00 84 1012.3
20260507022405 48 156 3.5 5.2 0.00 0.00 0.00 84 1012.3
20260507021844 48 159 2.6 4.3 0.00 0.00 0.00 83 1012.3